Location: Bluff Heights
(33.7692°N, 118.1592°W)
Time: 03:12:07
(UTC+00:00)

Vanguard 1 Rocket - Pass Details

Date: 29 September 2021
Orbit: 650 x 4225 km, 34.3° (Epoch: 24 October)

Event Time Altitude Azimuth Distance (km) Brightness Sun altitude
Exits shadow 08:55:49 11° 132° (SE) 5,437 11.2 -54.5°
Drops below altitude 10° 08:56:24 10° 131° (SE) 5,607 11.3 -54.4°
Sets 09:02:09 0° 128° (SE) 7,190 12.0 -53.7°
